Location: Hylvaty SDH
(49.9612°N, 16.4057°E)
Time: 21:08:45
(UTC+01:00)

Vanguard 1 Rocket - Pass Details

Date: 08 October 2020
Orbit: 656 x 4221 km, 34.3° (Epoch: 30 October)

Event Time Altitude Azimuth Distance (km) Brightness Sun altitude
Rises 16:05:40 0° 217° (SW) 3,860 12.0 18.7°
Reaches altitude 10° 16:08:23 10° 204° (SSW) 3,231 11.4 18.3°
Maximum altitude 16:15:04 27° 150° (SSE) 2,964 10.2 17.4°
Drops below altitude 10° 16:25:53 10° 101° (E) 5,397 11.0 15.9°
Sets 16:32:12 0° 92° (E) 7,063 11.4 15.1°
